Location: Freistadt
(48.5112°N, 14.5013°E)
Time: 05:29:54
(UTC+02:00)

PCSat - Visible Passes

Search period start: 26 March 2023 00:00
Search period end: 05 April 2023 01:00
Orbit: 784 x 794 km, 67.1° (Epoch: 25 March)

Date Brightness Start Highest point End Pass type
(mag) Time Alt. Az. Time Alt. Az. Time Alt. Az.
26 Mar 11.8 00:21:22 10° NNW 00:23:19 21° NNW 00:23:19 21° NNW visible
26 Mar 12.3 21:22:17 10° NNW 21:24:01 11° N 21:25:45 10° N visible
26 Mar 12.1 23:07:29 10° N 23:09:57 13° NNE 23:12:01 11° NE visible
27 Mar 11.7 00:50:09 10° NNW 00:52:41 23° N 00:52:41 23° N visible
27 Mar 12.2 20:50:05 10° NW 20:52:18 12° NNW 20:54:31 10° N visible
27 Mar 12.1 22:36:16 10° N 22:38:15 12° NNE 22:40:13 10° NE visible
28 Mar 11.6 00:18:57 10° NNW 00:22:04 24° N 00:22:04 24° N visible
28 Mar 12.0 02:02:02 10° NW 02:02:44 14° NW 02:02:44 14° NW visible
28 Mar 12.1 20:17:55 10° NW 20:20:37 14° NNW 20:23:19 10° N visible
28 Mar 12.2 22:05:01 10° N 22:06:31 11° N 22:08:03 10° NNE visible
28 Mar 11.5 23:47:46 10° NNW 23:51:28 22° NNE 23:51:28 22° NNE visible
29 Mar 11.8 01:30:43 10° NW 01:32:08 19° NNW 01:32:08 19° NNW visible
29 Mar 12.2 21:33:37 10° N 21:34:48 11° N 21:35:58 10° NNE visible
29 Mar 11.6 23:16:35 10° NNW 23:20:28 19° NNE 23:20:52 19° NE visible
30 Mar 11.6 00:59:26 10° NNW 01:01:32 24° NNW 01:01:32 24° NNW visible
30 Mar 12.2 21:01:58 10° NNW 21:03:03 11° N 21:04:09 10° N visible
30 Mar 11.7 22:45:25 10° NNW 22:48:51 17° NNE 22:50:18 15° NE visible
31 Mar 11.3 00:28:10 10° NNW 00:30:58 29° NNW 00:30:58 29° NNW visible
31 Mar 12.2 20:30:00 10° NNW 20:31:19 11° N 20:32:38 10° N visible
31 Mar 11.9 22:14:14 10° NNW 22:17:12 15° NNE 22:19:43 11° NE visible
31 Mar 11.1 23:56:56 10° NNW 00:00:24 32° N 00:00:24 32° N visible
01 Apr 12.0 01:40:25 10° NW 01:41:04 13° NW 01:41:04 13° NW visible
01 Apr 12.1 19:57:52 10° NNW 19:59:35 11° N 20:01:19 10° N visible
01 Apr 11.9 21:43:03 10° N 21:45:31 13° NNE 21:47:59 10° NE visible
01 Apr 11.0 23:25:43 10° NNW 23:29:51 32° NNE 23:29:51 32° NNE visible
02 Apr 11.7 01:08:59 10° NW 01:10:31 19° NW 01:10:31 19° NW visible
02 Apr 12.0 21:11:50 10° N 21:13:49 12° NNE 21:15:48 10° NE visible
02 Apr 11.0 22:54:31 10° NNW 22:59:07 27° NE 22:59:18 27° NE visible
03 Apr 11.4 00:37:36 10° NW 00:39:58 27° NW 00:39:58 27° NW visible
03 Apr 12.0 20:40:33 10° N 20:42:05 11° N 20:43:37 10° NNE visible
03 Apr 11.2 22:23:19 10° NNW 22:27:36 23° NE 22:28:47 21° NE visible
04 Apr 10.9 00:06:16 10° NW 00:09:28 37° NNW 00:09:28 37° NNW visible
04 Apr 12.1 20:09:09 10° N 20:10:21 11° N 20:11:32 10° NNE visible
04 Apr 11.5 21:52:08 10° NNW 21:56:00 19° NNE 21:58:17 15° ENE visible
04 Apr 10.4 23:34:58 10° NNW 23:38:57 47° N 23:38:57 47° N visible
